SUD1A MHTG-SKPS

Flight info

Callsign SUD1A
Flight time 2h 46m
Altitude 35000
Route LIBIS UA502 ULAPO/N0465F340 UA502 POXON/N0465F350 DCT VAPUK DCT PAKEX PAKEX1A
Aircraft A320/M-SDFGHILORVWY/S

Departure

Time 2026-05-06 11:08
Airport Toncontín Airport (MHTG)

Arrival

Time 2026-05-06 13:54
Airport Antonio Nariño Airport (SKPS)
Time Latitude Longitude Altitude Speed Heading
2026-05-06 11:06 14.05471 -87.21939 3303 ft 0 kts 19°
2026-05-06 11:07 14.05481 -87.21936 3302 ft 8 kts 19°
2026-05-06 11:07 14.05789 -87.21825 3287 ft 88 kts 19°
2026-05-06 11:07 14.06613 -87.21535 3271 ft 159 kts 19°
2026-05-06 11:07 14.07703 -87.21128 3789 ft 163 kts 18°
2026-05-06 11:08 14.08819 -87.20934 4484 ft 167 kts
2026-05-06 11:08 14.09986 -87.20890 5147 ft 167 kts
2026-05-06 11:08 14.11191 -87.20853 5322 ft 183 kts
2026-05-06 11:08 14.12570 -87.20803 5372 ft 210 kts
2026-05-06 11:09 14.14113 -87.20798 5499 ft 234 kts 360°
2026-05-06 11:09 14.15817 -87.20847 5716 ft 257 kts 359°
2026-05-06 11:09 14.17677 -87.20909 6095 ft 274 kts 360°
2026-05-06 11:09 14.19604 -87.20859 6748 ft 279 kts
2026-05-06 11:10 14.21552 -87.20693 7392 ft 283 kts
2026-05-06 11:10 14.23524 -87.20471 8042 ft 287 kts
2026-05-06 11:10 14.25516 -87.20230 8708 ft 290 kts
2026-05-06 11:10 14.27524 -87.19981 9376 ft 292 kts
2026-05-06 11:11 14.29551 -87.19719 10022 ft 295 kts 11°
2026-05-06 11:11 14.31532 -87.19169 10477 ft 301 kts 26°
2026-05-06 11:11 14.33363 -87.18017 10590 ft 318 kts 43°
2026-05-06 11:11 14.34841 -87.16258 10690 ft 334 kts 60°
2026-05-06 11:12 14.35832 -87.14031 10862 ft 349 kts 70°
2026-05-06 11:12 14.36720 -87.11672 11293 ft 356 kts 70°
2026-05-06 11:12 14.37619 -87.09285 11848 ft 359 kts 70°
2026-05-06 11:12 14.38466 -87.06853 12363 ft 361 kts 77°
2026-05-06 11:13 14.38751 -87.04281 12883 ft 363 kts 92°
2026-05-06 11:13 14.38311 -87.01715 13397 ft 366 kts 109°
2026-05-06 11:13 14.37168 -86.99359 13920 ft 371 kts 124°
2026-05-06 11:13 14.35406 -86.97409 14372 ft 376 kts 139°
2026-05-06 11:14 14.33359 -86.95719 14852 ft 378 kts 140°
2026-05-06 11:14 14.31292 -86.94025 15263 ft 381 kts 140°
2026-05-06 11:14 14.29205 -86.92316 15675 ft 385 kts 139°
2026-05-06 11:14 14.27099 -86.90593 16117 ft 387 kts 139°
2026-05-06 11:15 14.24979 -86.88861 16558 ft 390 kts 139°
2026-05-06 11:15 14.22823 -86.87143 16979 ft 395 kts 143°
2026-05-06 11:15 14.20344 -86.85882 17400 ft 403 kts 159°
2026-05-06 11:15 14.17566 -86.85378 17820 ft 411 kts 176°
2026-05-06 11:16 14.14738 -86.85731 18203 ft 421 kts 193°
2026-05-06 11:16 14.12052 -86.86975 18568 ft 430 kts 212°
2026-05-06 11:16 14.09644 -86.88826 18926 ft 433 kts 216°
2026-05-06 11:16 14.07247 -86.90725 19297 ft 436 kts 216°
2026-05-06 11:17 14.04833 -86.92627 19670 ft 438 kts 215°
2026-05-06 11:17 14.02405 -86.94533 20044 ft 440 kts 215°
2026-05-06 11:17 13.99960 -86.96445 20416 ft 442 kts 215°
2026-05-06 11:17 13.97502 -86.98367 20763 ft 445 kts 215°
2026-05-06 11:18 13.95033 -87.00298 21116 ft 447 kts 215°
2026-05-06 11:18 13.92554 -87.02239 21470 ft 449 kts 215°
2026-05-06 11:18 13.90063 -87.04191 21788 ft 451 kts 215°
2026-05-06 11:18 13.87558 -87.06152 22123 ft 454 kts 215°
2026-05-06 11:19 13.85038 -87.08121 22448 ft 456 kts 215°
2026-05-06 11:19 13.83332 -87.09454 22677 ft 457 kts 215°
2026-05-06 11:19 13.79966 -87.12086 23076 ft 460 kts 215°
2026-05-06 11:19 13.78243 -87.13435 23287 ft 461 kts 215°
2026-05-06 11:20 13.74854 -87.16094 23640 ft 464 kts 215°
2026-05-06 11:20 13.73152 -87.17429 23802 ft 466 kts 215°
2026-05-06 11:20 13.70571 -87.19450 24054 ft 467 kts 215°
2026-05-06 11:20 13.67869 -87.21287 24295 ft 465 kts 204°
2026-05-06 11:21 13.64869 -87.22489 24509 ft 462 kts 191°
2026-05-06 11:21 13.61717 -87.22978 24703 ft 457 kts 178°
2026-05-06 11:21 13.58562 -87.22758 24914 ft 453 kts 166°
2026-05-06 11:21 13.55553 -87.21866 25127 ft 449 kts 154°
2026-05-06 11:22 13.52813 -87.20366 25322 ft 445 kts 142°
2026-05-06 11:22 13.50295 -87.18513 25519 ft 447 kts 141°
2026-05-06 11:22 13.47773 -87.16636 25705 ft 448 kts 141°
2026-05-06 11:22 13.45250 -87.14756 25907 ft 449 kts 141°
2026-05-06 11:23 13.42717 -87.12872 26080 ft 451 kts 141°
2026-05-06 11:23 13.40170 -87.10984 26301 ft 452 kts 141°
2026-05-06 11:23 13.37613 -87.09093 26520 ft 454 kts 141°
2026-05-06 11:23 13.35046 -87.07198 26723 ft 455 kts 141°
2026-05-06 11:24 13.32476 -87.05301 26886 ft 456 kts 141°
2026-05-06 11:24 13.29895 -87.03394 27067 ft 457 kts 142°
2026-05-06 11:24 13.27308 -87.01482 27251 ft 459 kts 141°
2026-05-06 11:24 13.24714 -86.99567 27428 ft 460 kts 141°
2026-05-06 11:25 13.22112 -86.97644 27607 ft 461 kts 142°
2026-05-06 11:25 13.19507 -86.95717 27765 ft 462 kts 141°
2026-05-06 11:25 13.16894 -86.93784 27912 ft 464 kts 141°
2026-05-06 11:25 13.14272 -86.91844 28066 ft 465 kts 141°
2026-05-06 11:26 13.11646 -86.89891 28214 ft 467 kts 141°
2026-05-06 11:26 13.09026 -86.87925 28391 ft 467 kts 141°
2026-05-06 11:26 13.06404 -86.85945 28541 ft 468 kts 141°
2026-05-06 11:26 13.03783 -86.83961 28663 ft 469 kts 141°
2026-05-06 11:27 13.01156 -86.81971 28836 ft 469 kts 141°
2026-05-06 11:27 12.98529 -86.79986 29049 ft 469 kts 141°
2026-05-06 11:27 12.95905 -86.78009 29247 ft 468 kts 141°
2026-05-06 11:27 12.93280 -86.76038 29468 ft 468 kts 141°
2026-05-06 11:28 12.90649 -86.74078 29667 ft 467 kts 141°
2026-05-06 11:28 12.88013 -86.72125 29856 ft 467 kts 142°
2026-05-06 11:28 12.85377 -86.70179 30054 ft 467 kts 142°
2026-05-06 11:28 12.82741 -86.68233 30233 ft 467 kts 142°
2026-05-06 11:29 12.80112 -86.66290 30412 ft 466 kts 142°
2026-05-06 11:29 12.77519 -86.64370 30586 ft 466 kts 142°
2026-05-06 11:29 12.74896 -86.62426 30751 ft 466 kts 142°
2026-05-06 11:29 12.72271 -86.60482 30934 ft 465 kts 142°
2026-05-06 11:30 12.69651 -86.58541 31129 ft 465 kts 142°
2026-05-06 11:30 12.67032 -86.56599 31303 ft 465 kts 142°
2026-05-06 11:30 12.64410 -86.54656 31467 ft 465 kts 142°
2026-05-06 11:30 12.61789 -86.52714 31637 ft 465 kts 142°
2026-05-06 11:31 12.59168 -86.50773 31794 ft 465 kts 142°
2026-05-06 11:31 12.56544 -86.48835 31966 ft 465 kts 142°
2026-05-06 11:31 12.53916 -86.46898 32141 ft 465 kts 143°
2026-05-06 11:31 12.51292 -86.44964 32319 ft 465 kts 143°
2026-05-06 11:32 12.48664 -86.43028 32495 ft 465 kts 143°
2026-05-06 11:32 12.46041 -86.41091 32674 ft 465 kts 143°
2026-05-06 11:32 12.43417 -86.39152 32837 ft 465 kts 143°
2026-05-06 11:32 12.40796 -86.37213 33014 ft 465 kts 143°
2026-05-06 11:33 12.38176 -86.35277 33197 ft 465 kts 143°
2026-05-06 11:33 12.35550 -86.33339 33355 ft 465 kts 143°
2026-05-06 11:33 12.32923 -86.31400 33517 ft 466 kts 142°
2026-05-06 11:33 12.30295 -86.29460 33676 ft 466 kts 143°
2026-05-06 11:34 12.27669 -86.27521 33853 ft 466 kts 143°
2026-05-06 11:34 12.25037 -86.25576 34013 ft 466 kts 143°
2026-05-06 11:34 12.22407 -86.23635 34174 ft 466 kts 143°
2026-05-06 11:34 12.19777 -86.21701 34338 ft 466 kts 143°
2026-05-06 11:35 12.17149 -86.19768 34502 ft 465 kts 143°
2026-05-06 11:35 12.14521 -86.17830 34655 ft 465 kts 142°
2026-05-06 11:35 12.12052 -86.15701 34805 ft 464 kts 137°
2026-05-06 11:36 12.07211 -86.11310 34925 ft 466 kts 137°
2026-05-06 11:36 12.02355 -86.06912 34917 ft 466 kts 138°
2026-05-06 11:37 11.97490 -86.02519 34923 ft 468 kts 137°
2026-05-06 11:37 11.92607 -85.98114 34932 ft 468 kts 138°
2026-05-06 11:38 11.87728 -85.93708 34926 ft 469 kts 137°
2026-05-06 11:38 11.82837 -85.89299 34925 ft 469 kts 137°
2026-05-06 11:39 11.77980 -85.84915 34921 ft 469 kts 137°
2026-05-06 11:39 11.73081 -85.80500 34927 ft 470 kts 137°
2026-05-06 11:40 11.68187 -85.76085 34922 ft 470 kts 137°
2026-05-06 11:40 11.63290 -85.71678 34925 ft 469 kts 138°
2026-05-06 11:41 11.58388 -85.67272 34931 ft 470 kts 138°
2026-05-06 11:41 11.53491 -85.62869 34938 ft 469 kts 138°
2026-05-06 11:42 11.48597 -85.58468 34940 ft 469 kts 138°
2026-05-06 11:42 11.43707 -85.54065 34932 ft 469 kts 138°
2026-05-06 11:43 11.38807 -85.49661 34935 ft 470 kts 137°
2026-05-06 11:43 11.33980 -85.45164 34934 ft 470 kts 136°
2026-05-06 11:44 11.26857 -85.38276 34948 ft 471 kts 136°
2026-05-06 11:44 11.22083 -85.33701 34955 ft 471 kts 137°
2026-05-06 11:45 11.17288 -85.29150 34960 ft 471 kts 137°
2026-05-06 11:45 11.12494 -85.24599 34968 ft 471 kts 137°
2026-05-06 11:46 11.07711 -85.20048 34972 ft 470 kts 137°
2026-05-06 11:46 11.02915 -85.15525 34973 ft 470 kts 138°
2026-05-06 11:47 10.97999 -85.11154 34970 ft 469 kts 139°
2026-05-06 11:47 10.93034 -85.06853 34976 ft 469 kts 139°
2026-05-06 11:48 10.88089 -85.02528 34973 ft 469 kts 139°
2026-05-06 11:48 10.83199 -84.98203 34966 ft 469 kts 139°
2026-05-06 11:49 10.78277 -84.93835 34966 ft 469 kts 139°
2026-05-06 11:49 10.73348 -84.89479 34971 ft 469 kts 139°
2026-05-06 11:50 10.68417 -84.85130 34973 ft 469 kts 139°
2026-05-06 11:50 10.63487 -84.80778 34976 ft 470 kts 139°
2026-05-06 11:51 10.58548 -84.76423 34978 ft 470 kts 139°
2026-05-06 11:51 10.53606 -84.72064 34977 ft 470 kts 139°
2026-05-06 11:52 10.48662 -84.67709 34977 ft 470 kts 139°
2026-05-06 11:52 10.43715 -84.63355 34995 ft 470 kts 139°
2026-05-06 11:53 10.38767 -84.59005 34994 ft 470 kts 139°
2026-05-06 11:53 10.33825 -84.54654 34998 ft 470 kts 139°
2026-05-06 11:54 10.28877 -84.50315 35008 ft 470 kts 139°
2026-05-06 11:54 10.23921 -84.45982 35007 ft 470 kts 139°
2026-05-06 11:55 10.18968 -84.41643 35010 ft 470 kts 139°
2026-05-06 11:55 10.14018 -84.37306 35062 ft 470 kts 139°
2026-05-06 11:56 10.09075 -84.32988 35090 ft 469 kts 139°
2026-05-06 11:56 10.04137 -84.28670 35105 ft 468 kts 140°
2026-05-06 11:57 9.99205 -84.24345 35098 ft 469 kts 139°
2026-05-06 11:57 9.94308 -84.19966 35099 ft 469 kts 138°
2026-05-06 11:58 9.89544 -84.15502 35048 ft 469 kts 137°
2026-05-06 11:58 9.84726 -84.10961 35044 ft 470 kts 137°
2026-05-06 11:59 9.79943 -84.06508 35045 ft 470 kts 138°
2026-05-06 11:59 9.75105 -84.02052 35059 ft 470 kts 138°
2026-05-06 12:00 9.70266 -83.97597 35063 ft 470 kts 137°
2026-05-06 12:00 9.65442 -83.93130 35064 ft 469 kts 137°
2026-05-06 12:01 9.60626 -83.88662 35058 ft 469 kts 137°
2026-05-06 12:01 9.55797 -83.84209 35056 ft 469 kts 137°
2026-05-06 12:02 9.50960 -83.79771 35054 ft 469 kts 137°
2026-05-06 12:02 9.46125 -83.75332 35045 ft 469 kts 137°
2026-05-06 12:03 9.41297 -83.70889 35044 ft 469 kts 137°
2026-05-06 12:03 9.36472 -83.66452 35051 ft 468 kts 137°
2026-05-06 12:04 9.31658 -83.62028 35009 ft 467 kts 137°
2026-05-06 12:04 9.26847 -83.57612 35028 ft 466 kts 137°
2026-05-06 12:05 9.22039 -83.53204 35026 ft 466 kts 137°
2026-05-06 12:05 9.17238 -83.48793 34986 ft 466 kts 137°
2026-05-06 12:06 9.13255 -83.45123 35000 ft 466 kts 137°
2026-05-06 12:06 9.08456 -83.40726 35001 ft 465 kts 137°
2026-05-06 12:07 9.02876 -83.35619 34972 ft 465 kts 137°
2026-05-06 12:07 8.98080 -83.31224 34971 ft 465 kts 137°
2026-05-06 12:08 8.94063 -83.27541 34992 ft 465 kts 137°
2026-05-06 12:08 8.89267 -83.23147 34993 ft 465 kts 137°
2026-05-06 12:09 8.84475 -83.18759 34964 ft 465 kts 137°
2026-05-06 12:09 8.79680 -83.14369 34978 ft 465 kts 137°
2026-05-06 12:10 8.74888 -83.09980 34983 ft 465 kts 137°
2026-05-06 12:10 8.70123 -83.05626 34955 ft 465 kts 137°
2026-05-06 12:11 8.65321 -83.01247 34952 ft 465 kts 137°
2026-05-06 12:11 8.60972 -82.96459 34967 ft 462 kts 122°
2026-05-06 12:12 8.58171 -82.90642 34960 ft 461 kts 112°
2026-05-06 12:12 8.55167 -82.84940 34940 ft 462 kts 127°
2026-05-06 12:13 8.50536 -82.80472 34936 ft 462 kts 143°
2026-05-06 12:13 8.45374 -82.76587 34935 ft 463 kts 142°
2026-05-06 12:14 8.40213 -82.72685 34924 ft 464 kts 142°
2026-05-06 12:14 8.35044 -82.68778 34920 ft 464 kts 142°
2026-05-06 12:15 8.29867 -82.64870 34922 ft 465 kts 142°
2026-05-06 12:15 8.24693 -82.60965 34933 ft 464 kts 142°
2026-05-06 12:16 8.19520 -82.57062 34937 ft 464 kts 142°
2026-05-06 12:16 8.14348 -82.53165 34938 ft 464 kts 142°
2026-05-06 12:17 8.09182 -82.49272 34938 ft 463 kts 142°
2026-05-06 12:17 8.04020 -82.45380 34940 ft 463 kts 142°
2026-05-06 12:18 7.98860 -82.41491 34937 ft 463 kts 142°
2026-05-06 12:18 7.93700 -82.37607 34937 ft 463 kts 142°
2026-05-06 12:19 7.88537 -82.33724 34945 ft 463 kts 142°
2026-05-06 12:19 7.83375 -82.29845 34947 ft 462 kts 142°
2026-05-06 12:20 7.78223 -82.25969 34947 ft 462 kts 142°
2026-05-06 12:20 7.73077 -82.22098 34947 ft 462 kts 142°
2026-05-06 12:21 7.67929 -82.18231 34945 ft 461 kts 142°
2026-05-06 12:21 7.62787 -82.14365 34942 ft 461 kts 142°
2026-05-06 12:22 7.57687 -82.10529 34943 ft 461 kts 142°
2026-05-06 12:22 7.52550 -82.06667 34942 ft 461 kts 142°
2026-05-06 12:23 7.47410 -82.02805 34935 ft 461 kts 142°
2026-05-06 12:23 7.42265 -81.98948 34936 ft 461 kts 142°
2026-05-06 12:24 7.37119 -81.95090 34933 ft 461 kts 142°
2026-05-06 12:24 7.31976 -81.91225 34942 ft 461 kts 142°
2026-05-06 12:25 7.26827 -81.87361 34942 ft 461 kts 142°
2026-05-06 12:25 7.21674 -81.83506 34943 ft 461 kts 142°
2026-05-06 12:26 7.16523 -81.79646 34943 ft 462 kts 142°
2026-05-06 12:26 7.11375 -81.75782 34946 ft 462 kts 142°
2026-05-06 12:27 7.06221 -81.71924 34944 ft 462 kts 142°
2026-05-06 12:27 7.01068 -81.68065 34945 ft 462 kts 142°
2026-05-06 12:28 6.95915 -81.64209 34955 ft 461 kts 142°
2026-05-06 12:28 6.90765 -81.60357 34957 ft 461 kts 142°
2026-05-06 12:29 6.85624 -81.56511 34953 ft 460 kts 142°
2026-05-06 12:29 6.80484 -81.52670 34952 ft 460 kts 142°
2026-05-06 12:30 6.75347 -81.48828 34951 ft 460 kts 142°
2026-05-06 12:30 6.70213 -81.44989 34950 ft 460 kts 142°
2026-05-06 12:31 6.65081 -81.41149 34951 ft 460 kts 142°
2026-05-06 12:31 6.59983 -81.37330 34951 ft 460 kts 142°
2026-05-06 12:32 6.54843 -81.33492 34947 ft 460 kts 142°
2026-05-06 12:32 6.49706 -81.29660 34946 ft 460 kts 142°
2026-05-06 12:33 6.44565 -81.25822 34950 ft 460 kts 142°
2026-05-06 12:33 6.39430 -81.21986 34949 ft 460 kts 142°
2026-05-06 12:34 6.34286 -81.18146 34934 ft 461 kts 141°
2026-05-06 12:34 6.29130 -81.14296 34931 ft 462 kts 141°
2026-05-06 12:35 6.23960 -81.10444 34926 ft 463 kts 141°
2026-05-06 12:35 6.18786 -81.06586 34929 ft 463 kts 141°
2026-05-06 12:36 6.13604 -81.02726 34935 ft 464 kts 141°
2026-05-06 12:36 6.08422 -80.98864 34934 ft 464 kts 141°
2026-05-06 12:37 6.03236 -80.95004 34950 ft 464 kts 141°
2026-05-06 12:37 5.98057 -80.91142 34961 ft 463 kts 142°
2026-05-06 12:38 5.92891 -80.87293 34969 ft 461 kts 141°
2026-05-06 12:38 5.87740 -80.83455 34968 ft 460 kts 141°
2026-05-06 12:39 5.82599 -80.79626 34968 ft 460 kts 141°
2026-05-06 12:39 5.77496 -80.75828 34966 ft 459 kts 141°
2026-05-06 12:40 5.72360 -80.72009 34967 ft 459 kts 141°
2026-05-06 12:40 5.67227 -80.68191 34967 ft 459 kts 142°
2026-05-06 12:41 5.62090 -80.64377 34969 ft 459 kts 142°
2026-05-06 12:41 5.56959 -80.60557 34969 ft 459 kts 142°
2026-05-06 12:42 5.51836 -80.56740 34970 ft 459 kts 142°
2026-05-06 12:42 5.46704 -80.52931 34969 ft 458 kts 142°
2026-05-06 12:43 5.41580 -80.49122 34969 ft 458 kts 142°
2026-05-06 12:43 5.36456 -80.45313 34966 ft 458 kts 142°
2026-05-06 12:44 5.31328 -80.41508 34966 ft 458 kts 142°
2026-05-06 12:44 5.26199 -80.37708 34964 ft 458 kts 142°
2026-05-06 12:45 5.21071 -80.33900 34953 ft 458 kts 141°
2026-05-06 12:46 5.13395 -80.28173 34959 ft 459 kts 142°
2026-05-06 12:46 5.08263 -80.24370 34951 ft 459 kts 142°
2026-05-06 12:47 5.03128 -80.20574 34955 ft 458 kts 142°
2026-05-06 12:47 4.97998 -80.16771 34951 ft 458 kts 142°
2026-05-06 12:48 4.92874 -80.12971 34955 ft 459 kts 142°
2026-05-06 12:48 4.87775 -80.09192 34955 ft 459 kts 141°
2026-05-06 12:49 4.82651 -80.05391 34960 ft 458 kts 141°
2026-05-06 12:49 4.77531 -80.01592 34954 ft 458 kts 141°
2026-05-06 12:50 4.72414 -79.97795 34955 ft 458 kts 141°
2026-05-06 12:50 4.67295 -79.94002 34962 ft 458 kts 141°
2026-05-06 12:51 4.62175 -79.90210 34965 ft 458 kts 141°
2026-05-06 12:51 4.57056 -79.86419 34958 ft 457 kts 141°
2026-05-06 12:52 4.51935 -79.82633 34958 ft 457 kts 141°
2026-05-06 12:52 4.46815 -79.78837 34957 ft 458 kts 141°
2026-05-06 12:53 4.41691 -79.75041 34952 ft 459 kts 142°
2026-05-06 12:53 4.36553 -79.71242 34956 ft 459 kts 142°
2026-05-06 12:54 4.32279 -79.68083 34958 ft 459 kts 142°
2026-05-06 12:54 4.27139 -79.64286 34959 ft 459 kts 142°
2026-05-06 12:55 4.21998 -79.60480 34969 ft 459 kts 141°
2026-05-06 12:55 4.16861 -79.56671 34971 ft 459 kts 142°
2026-05-06 12:56 4.11721 -79.52873 34959 ft 459 kts 142°
2026-05-06 12:56 4.05749 -79.48460 34963 ft 459 kts 142°
2026-05-06 12:57 4.01445 -79.45279 34962 ft 459 kts 142°
2026-05-06 12:57 3.96315 -79.41483 34972 ft 458 kts 142°
2026-05-06 12:58 3.91228 -79.37726 34975 ft 457 kts 142°
2026-05-06 12:58 3.86124 -79.33948 34963 ft 456 kts 142°
2026-05-06 12:59 3.81022 -79.30185 34968 ft 455 kts 142°
2026-05-06 12:59 3.75927 -79.26425 34963 ft 455 kts 142°
2026-05-06 13:00 3.70834 -79.22668 34962 ft 455 kts 142°
2026-05-06 13:00 3.65741 -79.18907 34968 ft 455 kts 142°
2026-05-06 13:01 3.60658 -79.15140 34961 ft 455 kts 142°
2026-05-06 13:01 3.55567 -79.11380 34956 ft 455 kts 142°
2026-05-06 13:02 3.50467 -79.07622 34964 ft 455 kts 142°
2026-05-06 13:02 3.45373 -79.03863 34968 ft 455 kts 142°
2026-05-06 13:03 3.40281 -79.00109 34967 ft 454 kts 142°
2026-05-06 13:03 3.35192 -78.96356 34971 ft 454 kts 142°
2026-05-06 13:04 3.30110 -78.92595 34970 ft 454 kts 141°
2026-05-06 13:04 3.25495 -78.88313 34970 ft 453 kts 134°
2026-05-06 13:05 3.21031 -78.83865 34967 ft 453 kts 134°
2026-05-06 13:05 3.16565 -78.79427 34968 ft 452 kts 134°
2026-05-06 13:06 3.12102 -78.74984 34967 ft 452 kts 134°
2026-05-06 13:06 3.07665 -78.70578 34957 ft 452 kts 134°
2026-05-06 13:07 3.03208 -78.66137 34963 ft 452 kts 134°
2026-05-06 13:07 2.98713 -78.61672 34966 ft 452 kts 134°
2026-05-06 13:08 2.94246 -78.57237 34965 ft 452 kts 134°
2026-05-06 13:08 2.89817 -78.52826 34968 ft 452 kts 134°
2026-05-06 13:09 2.85362 -78.48386 34961 ft 452 kts 134°
2026-05-06 13:09 2.80900 -78.43947 34965 ft 453 kts 134°
2026-05-06 13:10 2.76436 -78.39510 34960 ft 453 kts 134°
2026-05-06 13:10 2.71966 -78.35070 34967 ft 453 kts 134°
2026-05-06 13:11 2.67501 -78.30629 34972 ft 453 kts 134°
2026-05-06 13:11 2.63033 -78.26189 34969 ft 453 kts 134°
2026-05-06 13:12 2.58562 -78.21747 34970 ft 453 kts 134°
2026-05-06 13:12 2.54091 -78.17298 34979 ft 454 kts 134°
2026-05-06 13:13 2.49610 -78.12853 34983 ft 454 kts 134°
2026-05-06 13:13 2.45126 -78.08403 34993 ft 454 kts 134°
2026-05-06 13:14 2.40643 -78.03953 34990 ft 454 kts 134°
2026-05-06 13:14 2.36160 -77.99497 34996 ft 454 kts 134°
2026-05-06 13:15 2.31684 -77.95044 35002 ft 453 kts 134°
2026-05-06 13:15 2.27213 -77.90603 35003 ft 453 kts 134°
2026-05-06 13:16 2.22745 -77.86165 35002 ft 453 kts 134°
2026-05-06 13:16 2.18273 -77.81726 34992 ft 453 kts 134°
2026-05-06 13:17 2.13796 -77.77290 35010 ft 453 kts 134°
2026-05-06 13:17 2.09323 -77.72850 35004 ft 453 kts 134°
2026-05-06 13:18 2.04851 -77.68409 35010 ft 453 kts 134°
2026-05-06 13:18 2.00372 -77.63962 35035 ft 454 kts 134°
2026-05-06 13:19 1.95893 -77.59522 35039 ft 454 kts 134°
2026-05-06 13:19 1.91444 -77.55100 35035 ft 454 kts 134°
2026-05-06 13:20 1.87035 -77.50589 35048 ft 453 kts 127°
2026-05-06 13:20 1.85365 -77.47941 35052 ft 450 kts 114°
2026-05-06 13:20 1.84344 -77.44997 35047 ft 449 kts 101°
2026-05-06 13:21 1.83228 -77.38818 35038 ft 449 kts 99°
2026-05-06 13:21 1.82117 -77.32709 35046 ft 450 kts 100°
2026-05-06 13:22 1.80977 -77.26512 35051 ft 450 kts 100°
2026-05-06 13:22 1.79654 -77.20400 35054 ft 451 kts 113°
2026-05-06 13:22 1.77980 -77.17770 35077 ft 451 kts 133°
2026-05-06 13:23 1.75467 -77.15903 35069 ft 453 kts 154°
2026-05-06 13:23 1.72441 -77.15048 35061 ft 455 kts 175°
2026-05-06 13:23 1.69293 -77.15319 35054 ft 458 kts 196°
2026-05-06 13:23 1.66465 -77.16665 35064 ft 461 kts 217°
2026-05-06 13:24 1.64104 -77.18847 35094 ft 465 kts 225°
2026-05-06 13:24 1.59526 -77.23494 35094 ft 470 kts 224°
2026-05-06 13:25 1.54759 -77.27965 35085 ft 469 kts 212°
2026-05-06 13:25 1.49093 -77.31008 35092 ft 449 kts 205°
2026-05-06 13:25 1.46348 -77.32381 35133 ft 433 kts 205°
2026-05-06 13:26 1.43691 -77.33695 35132 ft 422 kts 205°
2026-05-06 13:26 1.38432 -77.36188 35253 ft 415 kts 194°
2026-05-06 13:26 1.35605 -77.36526 35252 ft 408 kts 171°
2026-05-06 13:27 1.32915 -77.35744 35244 ft 403 kts 148°
2026-05-06 13:27 1.30782 -77.33982 35241 ft 399 kts 124°
2026-05-06 13:27 1.29545 -77.31537 35246 ft 395 kts 101°
2026-05-06 13:27 1.29403 -77.28817 35248 ft 394 kts 78°
2026-05-06 13:28 1.30374 -77.26279 35246 ft 394 kts 54°
2026-05-06 13:28 1.32300 -77.24342 35248 ft 397 kts 32°
2026-05-06 13:28 1.34863 -77.23337 35249 ft 400 kts
2026-05-06 13:28 1.37657 -77.23314 35246 ft 405 kts 357°
2026-05-06 13:29 1.40475 -77.23500 35248 ft 406 kts 358°
2026-05-06 13:29 1.43297 -77.23683 35018 ft 407 kts 358°
2026-05-06 13:29 1.46171 -77.23865 34042 ft 420 kts 358°
2026-05-06 13:29 1.49133 -77.24058 32882 ft 433 kts 358°
2026-05-06 13:30 1.52177 -77.24373 31771 ft 447 kts 349°
2026-05-06 13:30 1.55139 -77.25428 30737 ft 461 kts 333°
2026-05-06 13:30 1.57810 -77.27268 29612 ft 473 kts 324°
2026-05-06 13:30 1.60419 -77.29301 28636 ft 476 kts 324°
2026-05-06 13:31 1.63005 -77.31347 27906 ft 473 kts 323°
2026-05-06 13:31 1.65567 -77.33388 27228 ft 469 kts 323°
2026-05-06 13:31 1.68105 -77.35409 26612 ft 464 kts 323°
2026-05-06 13:31 1.70621 -77.37406 26023 ft 460 kts 324°
2026-05-06 13:32 1.73101 -77.39365 25125 ft 450 kts 324°
2026-05-06 13:32 1.75520 -77.41268 24749 ft 430 kts 324°
2026-05-06 13:32 1.77796 -77.43059 24616 ft 404 kts 324°
2026-05-06 13:32 1.79942 -77.44737 24501 ft 379 kts 327°
2026-05-06 13:33 1.82173 -77.45903 24372 ft 348 kts 348°
2026-05-06 13:33 1.84487 -77.46178 24020 ft 327 kts 10°
2026-05-06 13:33 1.86629 -77.45628 23481 ft 314 kts 28°
2026-05-06 13:33 1.88437 -77.44396 22350 ft 319 kts 48°
2026-05-06 13:34 1.89735 -77.42577 21227 ft 327 kts 63°
2026-05-06 13:34 1.91010 -77.40649 20052 ft 341 kts 47°
2026-05-06 13:34 1.92960 -77.39244 18981 ft 354 kts 26°
2026-05-06 13:34 1.95379 -77.38626 17850 ft 367 kts
2026-05-06 13:35 1.97930 -77.38822 16581 ft 380 kts 353°
2026-05-06 13:35 2.00532 -77.39396 15494 ft 386 kts 342°
2026-05-06 13:35 2.02892 -77.40671 14602 ft 387 kts 323°
2026-05-06 13:35 2.04745 -77.42609 13717 ft 387 kts 304°
2026-05-06 13:36 2.05867 -77.45014 13097 ft 375 kts 284°
2026-05-06 13:36 2.06206 -77.47516 12953 ft 357 kts 268°
2026-05-06 13:36 2.05867 -77.49912 12819 ft 342 kts 251°
2026-05-06 13:36 2.04923 -77.52029 12669 ft 327 kts 234°
2026-05-06 13:37 2.03507 -77.53752 12373 ft 316 kts 218°
2026-05-06 13:37 2.01747 -77.55004 12003 ft 308 kts 203°
2026-05-06 13:37 1.99771 -77.55754 11664 ft 301 kts 189°
2026-05-06 13:37 1.97715 -77.56003 11297 ft 295 kts 175°
2026-05-06 13:38 1.95701 -77.55764 10931 ft 290 kts 162°
2026-05-06 13:38 1.93833 -77.55073 10587 ft 285 kts 150°
2026-05-06 13:38 1.92191 -77.54000 10310 ft 279 kts 141°
2026-05-06 13:38 1.90661 -77.52867 10194 ft 268 kts 141°
2026-05-06 13:39 1.89184 -77.51782 10091 ft 258 kts 141°
2026-05-06 13:39 1.87850 -77.50642 9914 ft 248 kts 134°
2026-05-06 13:39 1.86696 -77.49346 9523 ft 248 kts 126°
2026-05-06 13:39 1.85723 -77.47907 9492 ft 253 kts 120°
2026-05-06 13:40 1.84922 -77.46331 9465 ft 255 kts 113°
2026-05-06 13:40 1.84336 -77.44667 9424 ft 254 kts 105°
2026-05-06 13:40 1.83973 -77.42938 9649 ft 255 kts 102°
2026-05-06 13:40 1.83661 -77.41204 9899 ft 253 kts 102°
2026-05-06 13:41 1.83452 -77.40053 10052 ft 255 kts 102°
2026-05-06 13:41 1.83132 -77.38301 10280 ft 257 kts 102°
2026-05-06 13:41 1.82808 -77.36539 10522 ft 258 kts 102°
2026-05-06 13:41 1.82486 -77.34780 10749 ft 258 kts 102°
2026-05-06 13:42 1.82167 -77.33021 10976 ft 258 kts 102°
2026-05-06 13:42 1.81844 -77.31256 11210 ft 259 kts 102°
2026-05-06 13:42 1.81518 -77.29477 11448 ft 260 kts 102°
2026-05-06 13:42 1.81190 -77.27698 11682 ft 261 kts 102°
2026-05-06 13:43 1.80862 -77.25912 11792 ft 262 kts 101°
2026-05-06 13:43 1.80535 -77.24119 11817 ft 262 kts 101°
2026-05-06 13:43 1.80207 -77.22328 11836 ft 262 kts 101°
2026-05-06 13:43 1.79848 -77.20536 11836 ft 264 kts 107°
2026-05-06 13:44 1.78978 -77.18927 11842 ft 269 kts 130°
2026-05-06 13:44 1.77497 -77.17813 11857 ft 270 kts 155°
2026-05-06 13:44 1.75656 -77.17418 11859 ft 275 kts 179°
2026-05-06 13:44 1.73786 -77.17852 11861 ft 281 kts 202°
2026-05-06 13:45 1.72048 -77.18772 11861 ft 283 kts 204°
2026-05-06 13:45 1.68587 -77.20647 11857 ft 283 kts 205°
2026-05-06 13:45 1.66855 -77.21585 11859 ft 283 kts 205°
2026-05-06 13:46 1.65127 -77.22510 11850 ft 277 kts 204°
2026-05-06 13:46 1.63479 -77.23394 11855 ft 262 kts 203°
2026-05-06 13:46 1.61903 -77.24240 11859 ft 254 kts 203°
2026-05-06 13:46 1.60351 -77.25068 11860 ft 252 kts 203°
2026-05-06 13:47 1.58805 -77.25891 11735 ft 250 kts 202°
2026-05-06 13:47 1.57273 -77.26709 11448 ft 249 kts 203°
2026-05-06 13:47 1.55751 -77.27524 11234 ft 246 kts 203°
2026-05-06 13:47 1.54258 -77.28322 10968 ft 246 kts 204°
2026-05-06 13:48 1.52781 -77.29111 10807 ft 241 kts 203°
2026-05-06 13:48 1.51279 -77.29887 10328 ft 249 kts 202°
2026-05-06 13:48 1.49681 -77.30680 9681 ft 264 kts 202°
2026-05-06 13:48 1.47988 -77.31512 9141 ft 266 kts 204°
2026-05-06 13:49 1.46361 -77.32319 8622 ft 263 kts 204°
2026-05-06 13:49 1.44734 -77.33131 8175 ft 258 kts 204°
2026-05-06 13:49 1.43187 -77.33909 8036 ft 236 kts 205°
2026-05-06 13:49 1.41812 -77.34603 8208 ft 203 kts 204°
2026-05-06 13:50 1.40647 -77.35194 8384 ft 179 kts 202°
2026-05-06 13:50 1.39557 -77.35741 8438 ft 173 kts 204°
2026-05-06 13:50 1.38480 -77.36274 8090 ft 173 kts 202°
2026-05-06 13:50 1.37360 -77.36527 8047 ft 162 kts 180°
2026-05-06 13:51 1.36253 -77.36403 8017 ft 159 kts 162°
2026-05-06 13:51 1.35262 -77.35932 8013 ft 158 kts 144°
2026-05-06 13:51 1.34487 -77.35168 8015 ft 157 kts 125°
2026-05-06 13:51 1.34000 -77.34199 7992 ft 156 kts 108°
2026-05-06 13:52 1.33844 -77.33114 7750 ft 159 kts 88°
2026-05-06 13:52 1.34057 -77.32037 7472 ft 159 kts 70°
2026-05-06 13:52 1.34609 -77.31084 7219 ft 159 kts 49°
2026-05-06 13:52 1.35437 -77.30365 6907 ft 159 kts 31°
2026-05-06 13:53 1.36457 -77.29949 6601 ft 159 kts 13°
2026-05-06 13:53 1.37532 -77.29667 6280 ft 159 kts 18°
2026-05-06 13:53 1.38602 -77.29366 5994 ft 159 kts 14°
2026-05-06 13:53 1.39609 -77.29109 5908 ft 132 kts 15°
2026-05-06 13:54 1.40322 -77.28919 5864 ft 65 kts 15°
2026-05-06 13:54 1.40586 -77.28853 5853 ft 17 kts 357°
2026-05-06 13:54 1.40615 -77.28850 5851 ft 2 kts 100°
2026-05-06 13:54 1.40605 -77.28847 5852 ft 4 kts 165°
2026-05-06 13:55 1.40557 -77.28856 5860 ft 6 kts 197°
2026-05-06 13:55 1.40544 -77.28860 5862 ft 0 kts 197°
2026-05-06 13:55 1.40532 -77.28864 5857 ft 4 kts 196°
2026-05-06 13:55 1.40492 -77.28875 5862 ft 8 kts 194°
2026-05-06 13:56 1.40419 -77.28893 5874 ft 13 kts 194°
2026-05-06 13:56 1.40312 -77.28922 5869 ft 18 kts 196°
2026-05-06 13:56 1.40182 -77.28957 5882 ft 20 kts 194°
2026-05-06 13:56 1.40047 -77.28991 5881 ft 19 kts 194°
2026-05-06 13:57 1.39932 -77.29023 5894 ft 16 kts 196°
2026-05-06 13:57 1.39833 -77.29050 5894 ft 13 kts 195°
2026-05-06 13:57 1.39759 -77.29069 5900 ft 9 kts 194°
2026-05-06 13:57 1.39708 -77.29082 5903 ft 6 kts 194°
2026-05-06 13:58 1.39672 -77.29052 5903 ft 10 kts 104°
2026-05-06 13:58 1.39643 -77.29014 5907 ft 5 kts 171°
2026-05-06 13:58 1.39593 -77.29019 5907 ft 9 kts 160°
2026-05-06 13:58 1.39576 -77.28985 5908 ft 0 kts 106°